HUBBLE
1 20580U 90037B 08184.50997587 .00000285 00000-0 91690-5 0 1699
2 20580 028.4693 223.2820 0003796 183.6672 176.3889 15.00390484797285
PO-34
1 25520U 98064B 08185.90458107 .00000271 00000-0 36246-5 0 286
2 25520 028.4595 066.8568 0005453 110.5740 249.5435 15.17206574535703
ISS
1 25544U 98067A 08185.54252005 .00009588 00000-0 67390-4 0 7857
2 25544 051.6399 292.2653 0008498 328.8724 140.2343 15.74921874551104
CO-58
1 28895U 05043F 08185.70927332 .00000086 00000-0 27639-4 0 603
2 28895 098.0985 079.3233 0017924 001.7223 358.4041 14.59680355142893
NCUBE2
1 28897U 05043H 08185.67187151 .00000088 00000-0 28031-4 0 5916
2 28897 098.0951 079.2153 0017624 003.0182 357.1120 14.59851668135178
FCAL
1 29667U 06055J 08146.34060426 .11864717 12752-4 73624-4 0 9790
2 29667 051.6107 065.3702 0009039 260.8350 099.5042 16.53464210 82911
FALCON
1 30776U 07006E 08185.05190854 .00000187 00000-0 16653-4 0 3456
2 30776 035.4339 057.2751 0000488 222.4690 137.5988 15.03013135 72534
MAST
1 31126U 07012K 08185.76353425 .00000097 00000-0 33013-4 0 3668
2 31126 098.0389 249.5366 0093345 280.6123 078.4580 14.53431916 64428
CAPE1
1 31130U 07012P 08185.17964081 .00000187 00000-0 54411-4 0 3445
2 31130 098.0371 247.9477 0101480 285.6617 073.3400 14.51973663 64043
CUTE1-7
1 32785U 08021C 08185.39809653 .00000018 00000-0 92016-5 0 938
2 32785 097.9922 245.2789 0016265 082.5436 277.7627 14.81372026 9809
COMPASS
1 32787U 08021E 08185.39583367 .00000058 00000-0 14318-4 0 821
2 32787 097.9874 245.2432 0017156 085.0016 275.3168 14.81428449 9809
AAUSAT2
1 32788U 08021F 08185.45854560 .00000201 00000-0 32399-4 0 835
2 32788 097.9892 245.3157 0017146 087.1409 273.1770 14.81538022 9818
DO-64
1 32789U 08021G 08185.19409293 .00000255 00000-0 39354-4 0 912
2 32789 097.9915 245.0650 0017043 085.0649 275.2509 14.81420074 9774
SEEDS
1 32791U 08021J 08185.46961033 .00000333 00000-0 49540-4 0 803
2 32791 097.9924 245.3288 0017425 083.0539 277.2659 14.81287901 9786
CANX-2
1 32797U 08021L 08185.99315246 .00001795 00000-0 23347-3 0 399
2 32797 097.9927 245.9090 0018648 087.4436 272.8703 14.81803165 8577
RS-30
1 32953U 08025A 08185.74931631 .00000010 00000-0 00000 0 0 466
2 32953 082.5016 113.2902 0017722 216.9653 143.0210 12.42996973 5104
